Weather in Borynya

Ukraine / Lviv District     49°04′39″N   22°59′43″E
temp.,
°C
wind,
m/s
gust,
m/s
humid.,
%
clouds,
%
prec.,
mm/h
press.,
hPa
HPBL,
m
4 march, thu
thu423:000ssw339761 0.0 102574
02:00+1ssw399737 0.0 1024291
05:00+1ssw3109744 0.0 1021341
08:00+1ssw389660 0.0 1020299
11:00+4ssw378291 0.0 1018454
14:00+6sw487845 0.0 1015578
17:00+4sw278725 0.0 1014418
20:00+2sw269462 0.1 1014163
5 march, fri
fri523:00+2ssw2399100 2.2 1013128
02:00+2s2299100 4.8 101261
05:00+2ssw2299100 0.4 101240
08:00+2wnw1399100 1.4 1012192
11:00−1n3594100 3.7 1014486
14:00−1nne4794100 6.1 1015602
17:00−2nne5994100 2.8 1017646
20:00−5nne51090100 3.5 1021726
6 march, sat
sat623:00−7nne3108976 0.0 1024401
02:00−9n249338 0.0 1026100
05:00−9nnw12880 0.0 102729
08:00−7nnw25927 0.0 1030264
11:00−3nnw367156 0.1 10301268
14:00−3nnw466678 0.4 10311379
17:00−4nnw3573100 0.1 10311061
20:00−8nw118982 0.2 103221
7 march, sun
sun723:00−8ssw11890 0.0 103221
02:00−8ssw22880 0.0 103127
05:00−8ssw38860 0.0 1029265
08:00−6sw312820 0.0 1028619
11:00−2sw510670 0.0 1026765
14:00−1sw510650 0.0 1023856
17:00−1sw5106915 0.0 1021801
20:00−4ssw39837 0.0 1021298
8 march, mon
mon823:00−5ssw38840 0.0 1021247
02:00−6ssw239112 0.0 102086
05:00−6ssw229417 0.0 101829
08:00−5ssw239149 0.0 1018105
11:00−1sw347069 0.0 1017676
14:00+1wsw346584 0.0 10171209
17:00−1wnw2478100 0.2 1016684
20:00−4wsw119597 0.3 101921